CW1459 Weather Reports


time (UTC)temp
F
wind
direction
speed
knots
gust
knots
rain 1hr
in
rain 24hr
in
rain mn
in
humidity
%
barometer
mb
20260507160331 62 340 4.3 9.6 0.00 0.02 0.00 45 1010.0
20260507155330 61 345 6.1 12.2 0.00 0.02 0.00 44 1010.1
20260507154313 60 35 3.5 8.7 0.00 0.02 0.00 45 1010.2
20260507153335 59 317 3.5 10.4 0.00 0.02 0.00 42 1010.2
20260507152315 60 5 1.7 8.7 0.00 0.02 0.00 42 1010.3
20260507151336 59 265 3.5 7.8 0.00 0.02 0.00 42 1010.5
20260507150334 60 9 3.5 10.4 0.00 0.02 0.00 42 1010.7
20260507145328 59 330 5.2 11.3 0.00 0.05 0.00 44 1010.9
20260507144331 57 342 4.3 9.6 0.00 0.05 0.00 47 1011.0
20260507143325 57 42 4.3 10.4 0.00 0.05 0.00 47 1011.0
20260507142314 57 328 4.3 9.6 0.00 0.05 0.00 48 1011.1
20260507141337 58 350 7.0 11.3 0.00 0.05 0.00 44 1011.1
20260507140351 57 21 5.2 9.6 0.00 0.05 0.00 48 1011.3
20260507135313 57 338 4.3 8.7 0.00 0.10 0.00 51 1011.5
20260507134331 57 325 5.2 10.4 0.00 0.10 0.00 48 1011.7
20260507133358 57 328 6.1 10.4 0.00 0.10 0.00 55 1011.6
20260507132317 56 342 4.3 9.6 0.00 0.10 0.00 56 1011.7
20260507131335 54 329 5.2 8.7 0.00 0.10 0.00 59 1011.7
20260507130337 54 341 5.2 9.6 0.00 0.10 0.00 56 1011.8
20260507125320 54 280 1.7 7.8 0.00 0.14 0.00 59 1011.9
20260507124312 54 344 3.5 7.0 0.00 0.14 0.00 59 1011.8
20260507123337 54 329 3.5 5.2 0.00 0.14 0.00 58 1011.7
20260507122318 53 5 2.6 7.8 0.00 0.14 0.00 61 1011.6
20260507121331 53 302 3.5 7.0 0.00 0.14 0.00 61 1011.5
20260507120312 52 309 3.5 7.0 0.00 0.14 0.00 63 1011.4
20260507115337 52 13 1.7 3.5 0.00 0.18 0.00 64 1011.5
20260507114314 52 336 2.6 4.3 0.00 0.18 0.00 64 1011.5
20260507113352 51 317 2.6 4.3 0.00 0.18 0.00 63 1011.4
20260507112334 51 318 1.7 4.3 0.00 0.18 0.00 65 1011.4
20260507111314 51 319 0.9 3.5 0.00 0.18 0.00 66 1011.4
20260507110313 51 345 3.5 7.8 0.00 0.18 0.00 67 1011.2
20260507105317 51 5 1.7 4.3 0.00 0.18 0.00 69 1011.1
20260507104337 51 5 0.9 1.7 0.00 0.18 0.00 69 1011.0
20260507103313 51 5 0.9 2.6 0.00 0.18 0.00 69 1010.7
20260507102315 51 330 0.9 2.6 0.00 0.18 0.00 69 1010.8
20260507101335 51 348 0.9 3.5 0.00 0.18 0.00 66 1010.6
20260507100312 51 360 2.6 4.3 0.00 0.18 0.00 65 1010.6
20260507095321 51 23 1.7 7.0 0.00 0.18 0.00 65 1010.3
20260507094331 51 28 3.5 7.0 0.00 0.18 0.00 65 1010.2
20260507093334 52 329 2.6 4.3 0.00 0.18 0.00 67 1010.3
20260507092330 52 325 1.7 4.3 0.00 0.18 0.00 68 1010.5
20260507091323 52 5 0.9 2.6 0.00 0.18 0.00 69 1010.4
20260507090329 52 9 0.9 2.6 0.00 0.18 0.00 68 1010.4
20260507085334 52 25 0.9 3.5 0.00 0.18 0.00 69 1010.3
20260507084315 52 342 3.5 7.0 0.00 0.18 0.00 69 1010.3
20260507083340 52 5 1.7 3.5 0.00 0.18 0.00 70 1010.2
20260507082330 52 11 1.7 5.2 0.00 0.18 0.00 71 1010.2
20260507081332 52 342 3.5 5.2 0.00 0.18 0.00 71 1010.0
20260507080335 52 335 5.2 8.7 0.00 0.18 0.00 73 1009.8
20260507075337 53 350 2.6 4.3 0.00 0.18 0.00 76 1009.6
20260507074338 53 336 1.7 4.3 0.00 0.18 0.00 78 1009.5
20260507073359 53 15 2.6 5.2 0.00 0.18 0.00 78 1009.5
20260507072351 53 341 3.5 7.0 0.00 0.18 0.00 79 1009.5
20260507071336 53 338 3.5 7.8 0.00 0.18 0.00 80 1009.8
20260507070337 54 351 1.7 2.6 0.00 0.18 0.00 81 1010.1
20260507065315 54 5 0.9 1.7 0.00 0.18 0.00 81 1010.1
20260507064322 54 349 1.7 3.5 0.00 0.18 0.00 81 1010.0
20260507063323 54 348 1.7 3.5 0.00 0.18 0.00 81 1010.0
20260507062329 54 331 0.9 1.7 0.00 0.18 0.00 82 1010.1
20260507061400 54 336 0.9 3.5 0.00 0.18 0.00 82 1010.1
20260507060341 54 333 1.7 3.5 0.00 0.18 0.00 81 1010.1
20260507055320 54 5 0.9 1.7 0.00 0.18 0.00 81 1010.1
20260507054340 54 25 0.9 5.2 0.00 0.18 0.00 80 1009.9
20260507053316 55 338 1.7 2.6 0.00 0.18 0.00 80 1009.9
20260507052315 55 334 1.7 3.5 0.00 0.18 0.00 80 1009.9
20260507051338 55 18 1.7 4.3 0.00 0.18 0.00 79 1009.9
20260507050401 55 317 2.6 5.2 0.00 0.18 0.00 79 1009.9
20260507045400 55 346 3.5 7.0 0.00 0.18 0.00 79 1009.8
20260507044318 55 5 3.5 8.7 0.00 0.18 0.00 80 1009.7
20260507043353 55 351 3.5 7.8 0.00 0.18 0.00 80 1009.6
20260507042337 55 343 1.7 3.5 0.00 0.18 0.00 81 1009.7
20260507041318 55 341 2.6 5.2 0.00 0.18 0.00 82 1010.1
20260507040324 55 345 2.6 7.8 0.00 0.18 0.00 82 1010.1
20260507035320 55 338 3.5 7.0 0.00 0.18 0.18 82 1010.0
20260507034339 56 343 1.7 7.0 0.00 0.18 0.18 83 1009.5
20260507033328 56 320 4.3 10.4 0.00 0.18 0.18 82 1009.7
20260507032334 56 315 5.2 9.6 0.00 0.18 0.18 83 1009.6
20260507031315 56 343 3.5 7.0 0.00 0.18 0.18 83 1009.7
20260507030336 56 325 5.2 10.4 0.00 0.18 0.18 83 1009.7
20260507025338 56 325 5.2 8.7 0.00 0.18 0.18 82 1009.7
20260507024352 57 339 5.2 8.7 0.00 0.18 0.18 82 1009.3
20260507023341 57 5 8.7 15.6 0.00 0.18 0.18 82 1009.4
20260507022335 57 333 6.1 10.4 0.00 0.18 0.18 83 1009.2
20260507021316 57 351 4.3 9.6 0.00 0.18 0.18 83 1009.1
20260507020316 57 348 3.5 7.8 0.00 0.18 0.18 83 1009.2
20260507015318 58 98 3.5 7.0 0.00 0.18 0.18 83 1009.3
20260507014320 58 43 0.9 7.0 0.00 0.18 0.18 83 1009.1
20260507013317 59 11 3.5 7.0 0.00 0.18 0.18 83 1008.8
20260507012319 59 333 4.3 7.0 0.00 0.18 0.18 83 1008.9
20260507011340 59 360 4.3 10.4 0.00 0.18 0.18 83 1008.8
20260507010340 59 346 4.3 7.0 0.00 0.18 0.18 83 1008.9
20260507005336 59 338 5.2 12.2 0.00 0.18 0.18 83 1009.2
20260507004314 59 338 3.5 8.7 0.01 0.18 0.18 84 1009.4
20260507003333 60 351 4.3 9.6 0.01 0.18 0.18 85 1008.9
20260507002315 61 5 3.5 7.0 0.01 0.18 0.18 86 1008.8
20260507001355 61 334 2.6 4.3 0.01 0.18 0.18 86 1008.8
20260507000314 61 271 1.7 7.8 0.01 0.18 0.18 86 1008.7
20260506235339 61 329 2.6 7.8 0.01 0.18 0.18 87 1008.5
20260506234319 62 303 3.5 7.0 0.00 0.17 0.17 88 1008.1
20260506233356 63 281 5.2 7.8 0.00 0.17 0.17 90 1007.9
20260506232338 63 319 0.9 7.0 0.00 0.17 0.17 90 1007.4
20260506231339 64 321 2.6 6.1 0.00 0.17 0.17 91 1007.4
20260506230340 64 335 1.7 5.2 0.00 0.17 0.17 91 1007.2
20260506225314 64 297 2.6 5.2 0.00 0.17 0.17 91 1007.4
20260506224327 65 162 0.9 2.6 0.00 0.17 0.17 91 1007.3
20260506223345 65 162 0.0 0.9 0.00 0.17 0.17 92 1007.0
20260506222333 65 162 0.9 2.6 0.00 0.17 0.17 92 1006.9
20260506221318 65 162 0.0 0.0 0.00 0.17 0.17 92 1006.9
20260506220338 65 162 0.0 1.7 0.01 0.17 0.17 92 1006.9
20260506215333 65 286 0.9 2.6 0.01 0.17 0.17 91 1006.7
20260506214314 65 244 0.9 2.6 0.01 0.17 0.17 91 1006.9
20260506213332 65 234 1.7 1.7 0.01 0.17 0.17 91 1006.7
20260506212314 65 234 0.0 2.6 0.01 0.17 0.17 90 1006.5
20260506211340 65 234 0.9 3.5 0.01 0.17 0.17 90 1006.4
20260506210315 66 19 0.9 2.6 0.00 0.16 0.16 89 1006.1
20260506205313 66 264 0.9 1.7 0.00 0.16 0.16 89 1005.9
20260506204339 65 264 0.0 2.6 0.00 0.16 0.16 89 1005.9
20260506203332 65 219 0.9 6.1 0.00 0.16 0.16 89 1005.8
20260506202324 65 151 1.7 2.6 0.00 0.16 0.16 89 1005.7
20260506201339 65 130 0.9 2.6 0.00 0.16 0.16 89 1005.9
20260506200333 65 161 0.9 5.2 0.00 0.16 0.16 89 1006.0
20260506195318 65 154 1.7 4.3 0.00 0.16 0.16 89 1006.0
20260506194315 65 153 2.6 4.3 0.00 0.16 0.16 89 1006.0
20260506193316 65 175 1.7 4.3 0.00 0.16 0.16 89 1005.9
20260506192333 65 194 1.7 6.1 0.00 0.16 0.16 89 1006.1
20260506191317 66 174 2.6 6.1 0.00 0.16 0.16 90 1006.1
20260506190338 66 118 2.6 6.1 0.00 0.16 0.16 90 1006.1
20260506185339 65 158 1.7 5.2 0.00 0.16 0.16 92 1006.2
20260506184342 64 156 1.7 4.3 0.00 0.16 0.16 90 1006.4
20260506183314 64 159 1.7 6.1 0.00 0.16 0.16 90 1006.5
20260506182320 64 146 2.6 7.0 0.00 0.16 0.16 88 1006.6
20260506181338 65 189 3.5 7.8 0.00 0.16 0.16 88 1006.6
20260506180313 65 167 3.5 7.0 0.00 0.16 0.16 87 1006.5
20260506175314 65 223 5.2 8.7 0.00 0.16 0.16 85 1006.4
20260506174314 66 202 5.2 9.6 0.00 0.16 0.16 85 1006.5
20260506173322 65 172 5.2 9.6 0.00 0.16 0.16 84 1006.3
20260506172315 65 181 4.3 7.8 0.00 0.16 0.16 84 1006.2
20260506171318 65 147 4.3 10.4 0.00 0.16 0.16 83 1006.1
20260506170324 65 168 3.5 9.6 0.00 0.16 0.16 83 1006.2
20260506165336 65 178 5.2 9.6 0.00 0.16 0.16 83 1006.2
20260506164316 65 202 5.2 10.4 0.00 0.16 0.16 82 1006.2
20260506163339 65 151 3.5 12.2 0.00 0.16 0.16 84 1006.2
20260506162338 65 221 6.1 12.2 0.00 0.16 0.16 83 1006.3
20260506161349 65 145 6.1 10.4 0.00 0.16 0.16 85 1006.2